This is the latest recevied weather packets stored in our database for station/object KD7AWQ. If no packets are shown the sender has not sent any weather packets the latest 10 day(s).
| Time | Temp. | Humidity | Pressure | Rain* | Wind** | Luminosity | Snow |
|---|---|---|---|---|---|---|---|
| 1777853803 | 26.11° C | 22% | 1181.4 hPa | 0 mm | - | 151 W/m² | - |
| 1777853499 | 26.11° C | 21% | 1181.3 hPa | 0 mm | - | 405 W/m² | - |
| 1777853196 | 26.11° C | 21% | 1181.4 hPa | 0 mm | - | 405 W/m² | - |
| 1777852894 | 26.67° C | 21% | 1181.3 hPa | 0 mm | - | 344 W/m² | - |
| 1777852591 | 26.67° C | 21% | 1181.9 hPa | 0 mm | - | 426 W/m² | - |
| 1777852288 | 26.67° C | 21% | 1181.4 hPa | 0 mm | - | 469 W/m² | - |
| 1777851986 | 26.67° C | 21% | 1181.4 hPa | 0 mm | - | 510 W/m² | - |
| 1777851684 | 26.67° C | 20% | 1181.3 hPa | 0 mm | - | 530 W/m² | - |
| 1777851381 | 26.67° C | 20% | 1181.5 hPa | 0 mm | - | 561 W/m² | - |
| 1777851076 | 26.67° C | 20% | 1181.6 hPa | 0 mm | - | 579 W/m² | - |
| 1777850774 | 26.67° C | 21% | 1181.6 hPa | 0 mm | - | 214 W/m² | - |
| 1777850470 | 26.67° C | 20% | 1181.4 hPa | 0 mm | - | 547 W/m² | - |
| 1777850169 | 26.67° C | 20% | 1181.6 hPa | 0 mm | - | 438 W/m² | - |
| 1777849865 | 26.11° C | 23% | 1181.5 hPa | 0 mm | - | 288 W/m² | - |
| 1777849562 | 26.11° C | 23% | 1181.5 hPa | 0 mm | - | 568 W/m² | - |
| 1777849259 | 25.56° C | 23% | 1181.8 hPa | 0 mm | - | 246 W/m² | - |
| 1777848956 | 26.11° C | 23% | 1181.3 hPa | 0 mm | - | 243 W/m² | - |
| 1777848651 | 26.67° C | 23% | 1181.4 hPa | 0 mm | - | 230 W/m² | - |
| 1777848349 | 26.11° C | 24% | 1182 hPa | 0 mm | - | 842 W/m² | - |
| 1777848047 | 25.56° C | 24% | 1182 hPa | 0 mm | - | 225 W/m² | - |
| 1777847745 | 26.11° C | 24% | 1181.8 hPa | 0 mm | - | 684 W/m² | - |
| 1777847439 | 26.11° C | 24% | 1182.1 hPa | 0 mm | - | 631 W/m² | - |
| 1777847138 | 26.11° C | 23% | 1181.9 hPa | 0 mm | - | 569 W/m² | - |
| 1777846836 | 26.67° C | 23% | 1182.2 hPa | 0 mm | - | 835 W/m² | - |
| 1777846534 | 26.11° C | 25% | 1182 hPa | 0 mm | - | 774 W/m² | - |
* Rain latest hour (hover to see other rain measurements)
** Current wind speed in m/s (hover to see current wind gust speed)